map of EGC home
Great Circle Mapper logo
EGC - Airport
Location
City:  Bergerac, France
Name:Roumaniere
ICAO / IATA:LFBE / EGC

Details
Type:Airport (Aerodrome, Airfield)
Use:Public/Civil
Latitude:4449'28"N (44.824431)
Longitude:031'14"E (0.520525)
Elevation:171 ft (52 m)
Variation:0.00E (WMM2015 magnetic declination)
0.12 annual change
Runways:2
Longest:7234 × 148 ft (2205 × 45 m)

Time
Time Zone:UTC+1 (DST+2)
Local Time:

Weather
METAR:LFBE 300100Z AUTO 07004KT CAVOK 18/14 Q1016
TAF:LFBE 292300Z 3000/3024 12008KT CAVOK
TEMPO 3012/3024 14010G20KT= TAF LFBH 292300Z 3000/3024 14008KT CAVOK
TEMPO 3000/3005 OVC003 PROB40 3000/3006 14010G20KT SCT005
BECMG 3012/3015 30010KT
TEMPO 3021/3024 -SHRA SCT050CB

Related Locations
Nearby:
Farthest:CHT: 12273 mi / 19752 km
Waitangi [Tuuta], Chatham Islands, NZ

Find:

   beyond  
but within

Other Information
Maps:
NOTAMs:
Links:
Sources:

  
flag of France   

Sectional Chart

Flight Planning
at skyvector.com

Satellite Image

Google Maps Satellite view

 

Copyright © 2004-2015 Karl L. Swartz. All rights reserved.
The Great Circle Mapper name and logo are trademarks of the Great Circle Mapper.
All other trademarks mentioned herein belong to their respective owners.
Please see credits for attibutions and further copyright information.

  Follow gcmap on Facebook Follow gcmap on Twitter Follow gcmap on Google+

hCard Microformat

Geo Microformat